[[{"header":{"parameterUnit":"m.s-1","parameterCategory":1,"la1":30.2991,"la2":30.254,"lo1":-89.0895,"lo2":-89.0444,"dy":0.0017,"dx":0.0017,"nx":28,"ny":28,"refTime":"2024-05-20T03:00:00:Z","depth":0,"parameterNumber":2,"parameterNumberName":"U-component_of_WINDS"},"data":[0,0,0,0,0,0,0,0,0,0,0,0,0,0,0,0,0,0,0,0,0,0,0,0,0,0,0,0,0,0,0,0,0,0,0,0,0,0,0,0,0,0,0,0,0,0,0,0,0,0,0,0,0,0,0,0,0,0,-2.1457,-2.1457,0,-2.1438,-2.1438,-2.1438,-2.1384,-2.1383,-2.1382,-2.1381,-2.1362,-2.1362,-2.1363,0,0,0,0,0,0,0,0,0,0,0,0,0,-2.1449,-2.145,-2.1457,-2.1457,-2.1457,-2.1439,-2.1438,-2.1438,-2.1385,-2.1383,-2.1382,-2.138,-2.1362,-2.1362,-2.1363,0,0,0,0,0,0,0,0,0,0,0,0,0,-2.1444,-2.145,-2.1458,-2.1428,-2.1425,-2.1439,-2.1438,-2.1438,-2.1385,-2.1383,-2.1381,-2.138,-2.1362,-2.1362,-2.1363,-2.1404,0,0,-2.1366,-2.1366,0,0,0,0,0,0,0,0,-2.1444,-2.1444,-2.1433,-2.143,-2.1427,-2.1412,-2.1428,-2.1426,-2.1385,-2.14,-2.1381,-2.1379,-2.138,-2.1379,-2.138,-2.1403,-2.1402,-2.1366,-2.1366,-2.1367,-2.1367,0,0,0,0,0,0,0,-2.1445,-2.1445,-2.145,-2.1433,-2.1429,-2.1416,-2.1414,-2.1428,-2.14,-2.1399,-2.1395,-2.1393,-2.1378,-2.1379,-2.1379,-2.1402,-2.1366,-2.1367,-2.1367,-2.1368,-2.1458,-2.146,0,0,0,0,0,0,-2.1449,-2.1445,-2.1451,-2.1449,-2.1431,-2.1418,-2.1415,-2.1419,-2.14,-2.1395,-2.1395,-2.1391,-2.1378,-2.1378,-2.1378,-2.1424,-2.1367,-2.1368,-2.1368,-2.1456,-2.1458,-2.146,0,0,0,0,0,0,-2.1449,-2.145,-2.1451,-2.1446,-2.1445,-2.142,-2.1425,-2.1419,-2.142,-2.1397,-2.1392,-2.14,-2.1377,-2.1377,-2.1398,-2.1422,-2.1368,-2.1369,-2.1454,-2.1457,-2.1459,-2.1516,0,0,0,0,0,0,-2.1449,-2.145,-2.1465,-2.1447,-2.1446,-2.1471,-2.1426,-2.142,-2.1421,-2.1416,-2.1401,-2.1397,-2.1375,-2.1397,-2.1399,-2.1422,-2.137,-2.1451,-2.1455,-2.1458,-2.1512,-2.152,-2.1528,0,0,0,0,0,-2.1449,-2.1481,-2.1466,-2.1467,-2.1464,-2.1473,-2.1472,-2.1447,-2.1424,-2.1438,-2.1424,-2.1397,-2.142,-2.1399,-2.1401,-2.1426,-2.145,-2.1454,-2.1458,-2.1508,-2.1519,-2.1528,0,0,0,0,0,0,-2.1502,-2.1479,-2.1461,-2.1489,-2.1483,-2.1463,-2.1481,-2.1459,-2.146,-2.1455,-2.1424,-2.1421,-2.1446,-2.1438,-2.1416,-2.1464,-2.143,-2.1435,-2.1468,-2.1478,-2.1486,-2.1486,-2.137,0,0,0,0,0,-2.1518,-2.1527,-2.1505,-2.1532,-2.153,-2.1507,-2.1509,-2.1491,-2.1484,-2.1481,-2.1468,-2.1463,-2.1469,-2.1473,-2.1477,-2.1511,-2.1507,-2.1529,-2.1537,-2.1544,-2.1548,-2.1565,-2.1575,-2.1474,-2.1474,-2.1474,0,0,-2.1549,-2.1537,-2.1544,-2.1543,-2.1536,-2.1546,-2.1505,-2.1517,-2.1525,-2.1483,-2.1502,-2.1493,-2.1485,-2.1513,-2.1524,-2.1506,-2.1575,-2.1549,-2.1555,-2.1555,-2.1571,-2.158,-2.1589,-2.1477,-2.1476,-2.1476,0,0,-2.161,-2.1603,-2.1624,-2.1619,-2.1609,-2.1594,-2.1599,-2.1583,-2.1576,-2.1594,-2.1563,-2.1573,-2.1583,-2.1579,-2.1578,-2.1641,-2.1616,-2.1643,-2.1684,-2.1702,-2.171,-2.1717,-2.1738,-2.1747,-2.1648,-2.1648,-2.1648,0,-2.165,-2.1664,-2.1638,-2.1652,-2.1653,-2.1616,-2.1638,-2.1634,-2.1627,-2.1629,-2.1609,-2.1623,-2.1615,-2.1641,-2.1657,-2.1658,-2.1663,-2.1644,-2.1711,-2.1717,-2.1723,-2.1744,-2.1752,-2.1651,-2.1651,-2.165,-2.165,0,-2.1713,-2.1724,-2.1742,-2.1736,-2.1739,-2.1757,-2.1734,-2.174,-2.1722,-2.1709,-2.1729,-2.1719,-2.172,-2.1726,-2.1708,-2.175,-2.1739,-2.1716,-2.1681,-2.1737,-2.1755,-2.1763,-2.1656,-2.1654,-2.1654,-2.1653,0,0,-2.1805,-2.1786,-2.1793,-2.1791,-2.1779,-2.1787,-2.1804,-2.1806,-2.1812,-2.1809,-2.1823,-2.1834,-2.1813,-2.1812,-2.1794,-2.1809,-2.186,-2.1784,-2.1783,-2.1798,-2.1905,-2.1922,-2.1931,-2.1844,-2.1846,-2.1847,-2.1905,0,-2.1863,-2.1891,-2.1868,-2.19,-2.191,-2.1877,-2.1892,-2.1887,-2.1876,-2.1882,-2.187,-2.1878,-2.185,-2.1849,-2.1863,-2.185,-2.188,-2.1846,-2.1856,-2.1857,-2.1858,-2.1941,-2.1958,-2.2014,-2.1913,-2.1914,-2.1915,0,-2.1933,-2.1934,-2.1967,-2.1954,-2.1957,-2.1971,-2.1971,-2.1978,-2.1973,-2.1963,-2.1964,-2.1942,-2.1959,-2.1926,-2.1949,-2.1926,-2.193,-2.1924,-2.1926,-2.1924,-2.1888,-2.1941,-2.2031,-2.2039,-2.1926,-2.1925,-2.1924,0,-2.1997,-2.2006,-2.2027,-2.2026,-2.2011,-2.2022,-2.2017,-2.2009,-2.2012,-2.2013,-2.2014,-2.2018,-2.2019,-2.2022,-2.2002,-2.198,-2.2027,-2.1993,-2.202,-2.2021,-2.203,-2.2029,-2.2121,-2.2035,-2.2034,-2.2034,-2.2034,0,-2.2062,-2.2084,-2.2055,-2.2068,-2.2091,-2.2066,-2.209,-2.2081,-2.2075,-2.2086,-2.2058,-2.2069,-2.2043,-2.2051,-2.2036,-2.2057,-2.2058,-2.2051,-2.2046,-2.2053,-2.2054,-2.2053,-2.2048,-2.2036,-2.2036,-2.2036,-2.2035,0,-2.2136,-2.2118,-2.2138,-2.2124,-2.2121,-2.2138,-2.2126,-2.2138,-2.2125,-2.214,-2.2142,-2.2122,-2.2131,-2.2112,-2.2118,-2.2107,-2.2137,-2.2127,-2.2139,-2.2136,-2.2163,-2.2161,-2.2257,-2.2268,-2.2176,-2.2177,-2.2177,0,-2.2178,-2.2194,-2.2182,-2.2187,-2.2183,-2.2192,-2.2195,-2.2172,-2.2176,-2.2172,-2.2184,-2.2191,-2.2194,-2.221,-2.2196,-2.2201,-2.219,-2.2224,-2.2191,-2.2197,-2.219,-2.2189,-2.219,-2.223,-2.2231,-2.2232,-2.2233,0,-2.2256,-2.2246,-2.2251,-2.2254,-2.2258,-2.2259,-2.2258,-2.2265,-2.224,-2.2247,-2.2255,-2.2258,-2.2265,-2.2272,-2.2274,-2.2268,-2.2247,-2.2244,-2.225,-2.2256,-2.2262,-2.2258,-2.2156,-2.2241,-2.224,-2.224,-2.2239,-2.2239,-2.2314,-2.2327,-2.232,-2.2327,-2.2324,-2.2324,-2.2335,-2.2324,-2.2331,-2.2334,-2.232,-2.2332,-2.2327,-2.2328,-2.2325,-2.2334,-2.2319,-2.2329,-2.2331,-2.2333,-2.2337,-2.2262,-2.2335,-2.2335,-2.2334,-2.2334,-2.2334,0,-2.2389,-2.2384,-2.2391,-2.239,-2.2396,-2.2376,-2.2374,-2.2381,-2.2391,-2.2389,-2.2393,-2.2404,-2.2411,-2.2399,-2.2404,-2.2413,-2.2404,-2.2415,-2.2414,-2.2413,-2.2351,-2.2344,-2.2423,-2.2423,-2.2423,-2.2423,-2.2423,-2.2423,-2.2429,-2.2449,-2.2439,-2.2458,-2.2452,-2.2464,-2.2464,-2.2465,-2.2462,-2.2475,-2.2481,-2.2473,-2.2467,-2.2471,-2.2477,-2.2474,-2.2476,-2.2492,-2.2485,-2.2426,-2.2417,-2.2409,-2.2403,-2.2493,-2.2493,-2.2546,-2.2546,-2.2547]},{"header":{"parameterUnit":"m.s-1","parameterCategory":1,"la1":30.2991,"la2":30.254,"lo1":-89.0895,"lo2":-89.0444,"dy":0.0017,"dx":0.0017,"nx":28,"ny":28,"refTime":"2024-05-20T03:00:00:Z","depth":0,"parameterNumber":3,"parameterNumberName":"V-component_of_WINDS"},"data":[0,0,0,0,0,0,0,0,0,0,0,0,0,0,0,0,0,0,0,0,0,0,0,0,0,0,0,0,0,0,0,0,0,0,0,0,0,0,0,0,0,0,0,0,0,0,0,0,0,0,0,0,0,0,0,0,0,0,2.3211,2.3212,0,2.3256,2.3256,2.3257,2.3289,2.329,2.329,2.329,2.3333,2.3334,2.3335,0,0,0,0,0,0,0,0,0,0,0,0,0,2.3152,2.3153,2.3211,2.3212,2.3212,2.3256,2.3256,2.3257,2.3289,2.329,2.329,2.329,2.3333,2.3334,2.3335,0,0,0,0,0,0,0,0,0,0,0,0,0,2.3185,2.3153,2.3211,2.3234,2.3236,2.3256,2.3256,2.3257,2.3289,2.329,2.329,2.3291,2.3332,2.3334,2.3335,2.3335,0,0,2.3339,2.334,0,0,0,0,0,0,0,0,2.3183,2.3187,2.323,2.3232,2.3235,2.3268,2.3251,2.3283,2.3289,2.3269,2.329,2.3291,2.3311,2.3314,2.3321,2.3337,2.3338,2.3339,2.334,2.3341,2.3341,0,0,0,0,0,0,0,2.3181,2.3186,2.3229,2.3231,2.3234,2.3241,2.3246,2.3257,2.3287,2.3271,2.3273,2.3278,2.3312,2.332,2.3322,2.3339,2.3339,2.334,2.3341,2.3342,2.3357,2.3357,0,0,0,0,0,0,2.3176,2.3184,2.3227,2.323,2.321,2.3242,2.3248,2.3257,2.3287,2.3292,2.3278,2.328,2.3317,2.3321,2.3324,2.3326,2.3341,2.3342,2.3343,2.3357,2.3357,2.3356,0,0,0,0,0,0,2.3174,2.3179,2.3226,2.3208,2.3214,2.3242,2.3252,2.3257,2.3265,2.3292,2.3297,2.3281,2.3318,2.3322,2.3332,2.3328,2.3342,2.3344,2.3358,2.3357,2.3357,2.333,0,0,0,0,0,0,2.3172,2.3178,2.3179,2.3207,2.3215,2.3233,2.3252,2.3258,2.3268,2.327,2.3296,2.3301,2.3319,2.333,2.3333,2.333,2.3345,2.3358,2.3358,2.3357,2.3331,2.3329,2.3326,0,0,0,0,0,2.317,2.3169,2.3179,2.3184,2.3216,2.3233,2.3237,2.3259,2.3267,2.3268,2.3285,2.33,2.3328,2.3331,2.3335,2.3332,2.3359,2.3358,2.3357,2.3333,2.3329,2.3326,0,0,0,0,0,0,2.3138,2.3173,2.3184,2.3193,2.321,2.3239,2.324,2.3254,2.3269,2.3271,2.3296,2.3301,2.3309,2.3321,2.3324,2.3333,2.3345,2.3345,2.3325,2.3322,2.332,2.3317,2.3346,0,0,0,0,0,2.3132,2.3144,2.3173,2.3178,2.3186,2.3211,2.3219,2.3235,2.3253,2.326,2.3278,2.3295,2.3308,2.3316,2.3329,2.3333,2.3339,2.3333,2.3331,2.3328,2.3328,2.3332,2.333,2.3354,2.3354,2.3354,0,0,2.312,2.314,2.3146,2.3172,2.3187,2.3198,2.3217,2.3228,2.3236,2.3261,2.3273,2.3286,2.3307,2.3314,2.3318,2.3325,2.3323,2.3327,2.3325,2.3326,2.3331,2.3329,2.3327,2.3353,2.3353,2.3353,0,0,2.3103,2.3119,2.3125,2.314,2.3164,2.3181,2.3182,2.3209,2.322,2.3231,2.3251,2.3261,2.3282,2.3296,2.3305,2.3295,2.3309,2.3298,2.3285,2.3288,2.3286,2.3285,2.3281,2.328,2.3298,2.3297,2.3297,0,2.3084,2.3102,2.3126,2.3136,2.3147,2.3172,2.3178,2.3191,2.3217,2.3223,2.323,2.3258,2.3273,2.3285,2.3282,2.3289,2.3291,2.3295,2.3285,2.3283,2.3282,2.3279,2.3278,2.3296,2.3296,2.3296,2.3297,0,2.3079,2.3091,2.3093,2.3118,2.3129,2.3137,2.3162,2.317,2.3184,2.32,2.3212,2.3231,2.3249,2.3253,2.3266,2.3266,2.3269,2.328,2.3293,2.3278,2.3276,2.3275,2.3294,2.3295,2.3295,2.3295,0,0,2.3043,2.3082,2.3082,2.3095,2.3122,2.3132,2.3141,2.3159,2.3166,2.3183,2.3191,2.3209,2.3219,2.323,2.3245,2.3248,2.3239,2.3259,2.326,2.3255,2.3241,2.3233,2.3231,2.3249,2.3249,2.3249,2.3239,0,2.303,2.3049,2.3071,2.3081,2.3093,2.3117,2.3125,2.3142,2.3158,2.3169,2.3186,2.3198,2.3211,2.3218,2.3222,2.324,2.3237,2.324,2.3256,2.3256,2.3251,2.323,2.3222,2.3212,2.3239,2.3239,2.3238,0,2.3019,2.3036,2.3048,2.3075,2.3081,2.3088,2.3107,2.3118,2.3138,2.3149,2.3162,2.3179,2.3189,2.3199,2.3213,2.3215,2.3223,2.3233,2.3233,2.3235,2.3247,2.3232,2.321,2.3208,2.3237,2.3237,2.3237,0,2.2992,2.3018,2.3029,2.3039,2.3071,2.3075,2.3088,2.3109,2.3119,2.3135,2.3142,2.3159,2.3168,2.318,2.3201,2.3207,2.3213,2.3225,2.3222,2.3222,2.3223,2.3222,2.3201,2.3227,2.3227,2.3227,2.3227,0,2.2977,2.2983,2.3018,2.3024,2.3032,2.3057,2.3064,2.308,2.3098,2.3108,2.3129,2.3137,2.3164,2.3175,2.3191,2.3201,2.3204,2.3213,2.3218,2.3212,2.3211,2.3217,2.3219,2.3226,2.3226,2.3226,2.3226,0,2.2949,2.2972,2.2985,2.3015,2.3023,2.3027,2.3052,2.3059,2.3076,2.3088,2.3092,2.3119,2.3133,2.3155,2.3176,2.3186,2.3194,2.32,2.3187,2.319,2.3186,2.3186,2.3168,2.3167,2.3193,2.3193,2.3192,0,2.2937,2.2943,2.2974,2.2983,2.2996,2.3009,2.302,2.3044,2.3054,2.3078,2.3082,2.3099,2.3113,2.3135,2.3156,2.3172,2.3179,2.3172,2.3182,2.3176,2.318,2.3179,2.318,2.317,2.3169,2.3169,2.3169,0,2.2915,2.2927,2.2942,2.2961,2.2974,2.299,2.3007,2.3012,2.3041,2.3051,2.3067,2.3078,2.31,2.3116,2.3135,2.3148,2.3163,2.3166,2.3166,2.316,2.3153,2.3157,2.3181,2.3166,2.3166,2.3166,2.3167,2.3167,2.2896,2.2903,2.2926,2.2942,2.2958,2.2973,2.2982,2.3,2.3014,2.3035,2.3048,2.3063,2.3083,2.311,2.3123,2.3134,2.3141,2.3141,2.3141,2.3141,2.3139,2.315,2.3138,2.3138,2.3138,2.3138,2.3138,0,2.2876,2.2892,2.2907,2.293,2.2943,2.2957,2.2977,2.2986,2.3,2.3018,2.3032,2.305,2.3066,2.3088,2.3105,2.3111,2.3118,2.3114,2.3114,2.3117,2.3132,2.3131,2.3108,2.3108,2.3108,2.3108,2.3108,2.3108,2.2867,2.2879,2.2893,2.2913,2.2929,2.2945,2.2955,2.297,2.2984,2.3004,2.3018,2.3032,2.3052,2.3071,2.3086,2.3092,2.3097,2.3092,2.31,2.3113,2.3116,2.3119,2.3117,2.3093,2.3093,2.3084,2.3084,2.3084]}]]